Location: Molino di Ancona
(43.6167°N, 13.3667°E)
Time: 14:31:05
(UTC+00:00)

Cosmos 1500 - Pass Details

Date: 15 December 2019
Orbit: 499 x 521 km, 82.5° (Epoch: 23 January)

Event Time Altitude Azimuth Distance (km) Brightness Sun altitude
Rises 04:55:51 0° 193° (SSW) 2,627 6.8 -16.8°
Reaches altitude 10° 04:58:00 10° 197° (SSW) 1,742 5.9 -16.4°
Maximum altitude 05:01:47 65° 279° (W) 569 3.1 -15.7°
Drops below altitude 10° 05:05:36 10° 3° (N) 1,746 5.7 -15.1°
Sets 05:07:45 0° 6° (N) 2,633 6.7 -14.7°
